Time,TemperatureF,DewpointF,PressureIn,WindDirection,WindDirectionDegrees,WindSpeedMPH,WindSpeedGustMPH,Humidity,HourlyPrecipIn,Conditions,Clouds,dailyrainin,SoftwareType,DateUTC
2013-02-27 00:02:00,8.0,6.0,30.10,NNW,342,0.0,1.0,91,0.00,,,0.00,,2013-02-27 06:02:00,
2013-02-27 00:11:00,8.0,6.0,30.10,NNW,342,0.0,1.0,91,0.00,,,0.00,,2013-02-27 06:11:00,
2013-02-27 00:21:00,8.0,6.0,30.11,NNW,341,0.0,0.0,91,0.00,,,0.00,,2013-02-27 06:21:00,
2013-02-27 00:33:00,8.0,6.0,30.11,NNW,341,0.0,0.0,91,0.00,,,0.00,,2013-02-27 06:33:00,
2013-02-27 00:41:00,8.0,6.0,30.11,NNW,341,0.0,0.0,91,0.00,,,0.00,,2013-02-27 06:41:00,
2013-02-27 00:51:00,9.0,7.0,30.11,North,349,0.0,1.0,92,0.00,,,0.00,,2013-02-27 06:51:00,
2013-02-27 01:01:00,9.0,7.0,30.11,North,349,0.0,1.0,92,0.00,,,0.00,,2013-02-27 07:01:00,
2013-02-27 01:12:00,9.0,7.0,30.11,North,349,0.0,1.0,92,0.00,,,0.00,,2013-02-27 07:12:00,
2013-02-27 01:21:00,8.0,6.0,30.11,North,358,0.0,1.0,90,0.00,,,0.00,,2013-02-27 07:21:00,
2013-02-27 01:32:00,7.0,5.0,30.11,NNW,341,0.0,0.0,90,0.00,,,0.00,,2013-02-27 07:32:00,
2013-02-27 01:42:00,7.0,5.0,30.11,NNW,341,0.0,0.0,90,0.00,,,0.00,,2013-02-27 07:42:00,
2013-02-27 01:51:00,9.0,7.0,30.11,WNW,300,1.0,2.0,93,0.00,,,0.00,,2013-02-27 07:51:00,
2013-02-27 02:01:00,10.0,8.0,30.11,WNW,302,1.0,3.0,93,0.00,,,0.00,,2013-02-27 08:01:00,
2013-02-27 02:11:00,10.0,8.0,30.11,WNW,302,1.0,3.0,93,0.00,,,0.00,,2013-02-27 08:11:00,
2013-02-27 02:21:00,11.0,9.0,30.11,WNW,302,2.0,4.0,93,0.00,,,0.00,,2013-02-27 08:21:00,
2013-02-27 02:32:00,11.0,9.0,30.11,WNW,297,2.0,4.0,92,0.00,,,0.00,,2013-02-27 08:32:00,
2013-02-27 02:41:00,11.0,9.0,30.11,WNW,297,2.0,4.0,92,0.00,,,0.00,,2013-02-27 08:41:00,
2013-02-27 02:52:00,12.0,10.0,30.11,NW,317,1.0,3.0,92,0.00,,,0.00,,2013-02-27 08:52:00,
2013-02-27 03:02:00,12.0,10.0,30.11,NW,322,0.0,3.0,92,0.00,,,0.00,,2013-02-27 09:02:00,
2013-02-27 03:12:00,12.0,10.0,30.11,NW,322,0.0,3.0,92,0.00,,,0.00,,2013-02-27 09:12:00,
2013-02-27 03:22:00,12.0,10.0,30.11,NNW,341,0.0,2.0,92,0.00,,,0.00,,2013-02-27 09:22:00,
2013-02-27 03:32:00,11.0,9.0,30.11,North,349,0.0,1.0,91,0.00,,,0.00,,2013-02-27 09:32:00,
2013-02-27 03:41:00,11.0,9.0,30.11,North,349,0.0,1.0,91,0.00,,,0.00,,2013-02-27 09:41:00,
2013-02-27 03:51:00,10.0,8.0,30.11,North,349,0.0,0.0,91,0.00,,,0.00,,2013-02-27 09:51:00,
2013-02-27 04:01:00,9.0,7.0,30.11,NNW,348,0.0,0.0,90,0.00,,,0.00,,2013-02-27 10:01:00,
2013-02-27 04:12:00,9.0,7.0,30.11,NNW,348,0.0,0.0,90,0.00,,,0.00,,2013-02-27 10:12:00,
2013-02-27 04:22:00,9.0,7.0,30.11,NW,321,0.0,1.0,92,0.00,,,0.00,,2013-02-27 10:22:00,
2013-02-27 04:32:00,10.0,8.0,30.11,NW,310,0.0,1.0,92,0.00,,,0.00,,2013-02-27 10:32:00,
2013-02-27 04:42:00,10.0,8.0,30.11,NW,310,0.0,1.0,92,0.00,,,0.00,,2013-02-27 10:42:00,
2013-02-27 04:52:00,11.0,9.0,30.11,NW,311,0.0,2.0,92,0.00,,,0.00,,2013-02-27 10:52:00,
2013-02-27 05:02:00,11.0,9.0,30.11,NNW,329,0.0,2.0,92,0.00,,,0.00,,2013-02-27 11:02:00,
2013-02-27 05:12:00,11.0,9.0,30.11,NNW,329,0.0,2.0,92,0.00,,,0.00,,2013-02-27 11:12:00,
2013-02-27 05:22:00,10.0,8.0,30.11,NW,305,0.0,1.0,90,0.00,,,0.00,,2013-02-27 11:22:00,
2013-02-27 05:32:00,10.0,8.0,30.12,WNW,293,1.0,2.0,92,0.00,,,0.00,,2013-02-27 11:32:00,
2013-02-27 05:41:00,10.0,8.0,30.12,WNW,293,1.0,2.0,92,0.00,,,0.00,,2013-02-27 11:41:00,
2013-02-27 05:52:00,10.0,8.0,30.12,WNW,294,0.0,2.0,92,0.00,,,0.00,,2013-02-27 11:52:00,
2013-02-27 06:02:00,11.0,9.0,30.12,WNW,297,0.0,2.0,92,0.00,,,0.00,,2013-02-27 12:02:00,
2013-02-27 06:13:00,11.0,9.0,30.12,WNW,297,0.0,2.0,92,0.00,,,0.00,,2013-02-27 12:13:00,
2013-02-27 06:22:00,12.0,10.0,30.12,WNW,302,0.0,3.0,92,0.00,,,0.00,,2013-02-27 12:22:00,
2013-02-27 06:33:00,12.0,10.0,30.13,NW,321,0.0,2.0,92,0.00,,,0.00,,2013-02-27 12:33:00,
2013-02-27 06:42:00,12.0,10.0,30.13,NW,321,0.0,2.0,92,0.00,,,0.00,,2013-02-27 12:42:00,
2013-02-27 06:52:00,14.0,12.0,30.13,NW,321,0.0,3.0,93,0.00,,,0.00,,2013-02-27 12:52:00,
2013-02-27 07:02:00,15.0,14.0,30.13,NNW,330,1.0,2.0,94,0.00,,,0.00,,2013-02-27 13:02:00,
2013-02-27 07:11:00,15.0,14.0,30.13,NNW,330,1.0,2.0,94,0.00,,,0.00,,2013-02-27 13:11:00,
2013-02-27 07:22:00,16.0,14.0,30.14,North,356,1.0,4.0,93,0.00,,,0.00,,2013-02-27 13:22:00,
2013-02-27 07:32:00,16.0,15.0,30.14,North,352,2.0,4.0,94,0.00,,,0.00,,2013-02-27 13:32:00,
2013-02-27 07:42:00,16.0,15.0,30.14,North,352,2.0,4.0,94,0.00,,,0.00,,2013-02-27 13:42:00,
2013-02-27 07:52:00,17.0,16.0,30.14,North,351,1.0,3.0,94,0.00,,,0.00,,2013-02-27 13:52:00,
2013-02-27 08:02:00,18.0,17.0,30.14,NNW,336,3.0,6.0,94,0.00,,,0.00,,2013-02-27 14:02:00,
2013-02-27 08:12:00,18.0,17.0,30.14,NNW,336,3.0,6.0,94,0.00,,,0.00,,2013-02-27 14:12:00,
2013-02-27 08:22:00,18.0,17.0,30.14,NNW,329,3.0,8.0,94,0.00,,,0.00,,2013-02-27 14:22:00,
2013-02-27 08:32:00,19.0,18.0,30.13,WNW,294,3.0,10.0,94,0.00,,,0.00,,2013-02-27 14:32:00,
2013-02-27 08:42:00,19.0,18.0,30.13,WNW,294,3.0,10.0,94,0.00,,,0.00,,2013-02-27 14:42:00,
2013-02-27 08:52:00,19.0,17.0,30.14,North,356,2.0,7.0,93,0.00,,,0.00,,2013-02-27 14:52:00,
2013-02-27 09:02:00,19.0,17.0,30.14,NW,315,4.0,7.0,93,0.00,,,0.00,,2013-02-27 15:02:00,
2013-02-27 09:12:00,19.0,17.0,30.14,NW,315,4.0,7.0,93,0.00,,,0.00,,2013-02-27 15:12:00,
2013-02-27 09:22:00,19.0,17.0,30.14,NW,319,4.0,9.0,93,0.00,,,0.00,,2013-02-27 15:22:00,
2013-02-27 09:32:00,19.0,17.0,30.15,NNE,15,4.0,9.0,93,0.00,,,0.00,,2013-02-27 15:32:00,
2013-02-27 09:42:00,19.0,17.0,30.15,NNE,15,4.0,9.0,93,0.00,,,0.00,,2013-02-27 15:42:00,
2013-02-27 09:52:00,19.0,17.0,30.15,NNW,335,5.0,11.0,93,0.00,,,0.00,,2013-02-27 15:52:00,
2013-02-27 10:02:00,20.0,18.0,30.15,NW,319,6.0,11.0,93,0.00,,,0.00,,2013-02-27 16:02:00,
2013-02-27 10:12:00,20.0,18.0,30.15,NW,319,6.0,11.0,93,0.00,,,0.00,,2013-02-27 16:12:00,
2013-02-27 10:22:00,20.0,18.0,30.15,North,356,4.0,13.0,93,0.00,,,0.00,,2013-02-27 16:22:00,
2013-02-27 10:32:00,21.0,19.0,30.15,NW,325,8.0,16.0,92,0.00,,,0.00,,2013-02-27 16:32:00,
2013-02-27 10:42:00,21.0,19.0,30.15,NW,325,8.0,16.0,92,0.00,,,0.00,,2013-02-27 16:42:00,
2013-02-27 10:52:00,22.0,20.0,30.15,NNE,15,6.0,13.0,92,0.00,,,0.00,,2013-02-27 16:52:00,
2013-02-27 11:02:00,23.0,21.0,30.15,North,11,6.0,15.0,91,0.00,,,0.00,,2013-02-27 17:02:00,
2013-02-27 11:11:00,23.0,21.0,30.15,North,11,6.0,15.0,91,0.00,,,0.00,,2013-02-27 17:11:00,
2013-02-27 11:21:00,23.0,21.0,30.15,NNE,30,8.0,16.0,90,0.00,,,0.00,,2013-02-27 17:21:00,
2013-02-27 11:32:00,24.0,21.0,30.15,NNW,327,8.0,16.0,89,0.00,,,0.00,,2013-02-27 17:32:00,
2013-02-27 11:42:00,24.0,21.0,30.15,NNW,327,8.0,16.0,89,0.00,,,0.00,,2013-02-27 17:42:00,
2013-02-27 11:52:00,25.0,22.0,30.14,NW,322,10.0,16.0,87,0.00,,,0.00,,2013-02-27 17:52:00,
2013-02-27 12:01:00,26.0,23.0,30.14,ENE,60,8.0,15.0,87,0.00,,,0.00,,2013-02-27 18:01:00,
2013-02-27 12:11:00,26.0,23.0,30.14,ENE,60,8.0,15.0,87,0.00,,,0.00,,2013-02-27 18:11:00,
2013-02-27 12:22:00,26.0,22.0,30.14,NW,315,11.0,16.0,86,0.00,,,0.00,,2013-02-27 18:22:00,
2013-02-27 12:32:00,26.0,22.0,30.15,North,7,9.0,19.0,86,0.00,,,0.00,,2013-02-27 18:32:00,
2013-02-27 12:42:00,26.0,22.0,30.15,North,7,9.0,19.0,86,0.00,,,0.00,,2013-02-27 18:42:00,
2013-02-27 12:51:00,27.0,23.0,30.15,NNW,329,8.0,15.0,86,0.00,,,0.00,,2013-02-27 18:51:00,
2013-02-27 13:01:00,27.0,23.0,30.14,NNE,20,11.0,18.0,85,0.00,,,0.00,,2013-02-27 19:01:00,
2013-02-27 13:12:00,27.0,23.0,30.14,NNE,20,11.0,18.0,85,0.00,,,0.00,,2013-02-27 19:12:00,
2013-02-27 13:21:00,27.0,23.0,30.14,North,11,9.0,18.0,86,0.00,,,0.00,,2013-02-27 19:21:00,
2013-02-27 13:32:00,28.0,24.0,30.15,North,11,9.0,20.0,85,0.00,,,0.00,,2013-02-27 19:32:00,
2013-02-27 13:42:00,28.0,24.0,30.15,North,11,9.0,20.0,85,0.00,,,0.00,,2013-02-27 19:42:00,
2013-02-27 13:52:00,28.0,24.0,30.15,North,1,11.0,17.0,85,0.00,,,0.00,,2013-02-27 19:52:00,
2013-02-27 14:01:00,28.0,24.0,30.15,North,351,10.0,21.0,84,0.00,,,0.00,,2013-02-27 20:01:00,
2013-02-27 14:11:00,28.0,24.0,30.15,North,351,10.0,21.0,84,0.00,,,0.00,,2013-02-27 20:11:00,
2013-02-27 14:21:00,28.0,24.0,30.15,NNE,16,9.0,20.0,85,0.00,,,0.00,,2013-02-27 20:21:00,
2013-02-27 14:32:00,28.0,24.0,30.15,NNE,18,9.0,16.0,85,0.00,,,0.00,,2013-02-27 20:32:00,
2013-02-27 14:42:00,28.0,24.0,30.15,NNE,18,9.0,16.0,85,0.00,,,0.00,,2013-02-27 20:42:00,
2013-02-27 14:52:00,28.0,24.0,30.15,NNW,341,7.0,17.0,85,0.00,,,0.00,,2013-02-27 20:52:00,
2013-02-27 15:02:00,28.0,24.0,30.16,NNW,327,8.0,18.0,85,0.00,,,0.00,,2013-02-27 21:02:00,
2013-02-27 15:11:00,28.0,24.0,30.16,NNW,327,8.0,18.0,85,0.00,,,0.00,,2013-02-27 21:11:00,
2013-02-27 15:22:00,27.0,23.0,30.16,NE,34,11.0,15.0,85,0.00,,,0.00,,2013-02-27 21:22:00,
2013-02-27 15:32:00,27.0,23.0,30.16,North,360,11.0,18.0,85,0.00,,,0.00,,2013-02-27 21:32:00,
2013-02-27 15:42:00,27.0,23.0,30.16,North,360,11.0,18.0,85,0.00,,,0.00,,2013-02-27 21:42:00,
2013-02-27 15:51:00,28.0,24.0,30.16,NNE,13,9.0,18.0,85,0.00,,,0.00,,2013-02-27 21:51:00,
2013-02-27 16:01:00,27.0,23.0,30.16,NNW,335,9.0,17.0,85,0.00,,,0.00,,2013-02-27 22:01:00,
2013-02-27 16:11:00,27.0,23.0,30.16,NNW,335,9.0,17.0,85,0.00,,,0.00,,2013-02-27 22:11:00,
2013-02-27 16:21:00,27.0,23.0,30.17,NNW,330,8.0,19.0,85,0.00,,,0.00,,2013-02-27 22:21:00,
2013-02-27 16:32:00,27.0,23.0,30.17,NNW,330,8.0,19.0,85,0.00,,,0.00,,2013-02-27 22:32:00,
2013-02-27 16:42:00,27.0,23.0,30.17,NNW,330,8.0,19.0,85,0.00,,,0.00,,2013-02-27 22:42:00,
2013-02-27 16:51:00,27.0,23.0,30.17,NNW,346,9.0,18.0,85,0.00,,,0.00,,2013-02-27 22:51:00,
2013-02-27 17:01:00,26.0,22.0,30.17,North,356,10.0,18.0,85,0.00,,,0.00,,2013-02-27 23:01:00,
2013-02-27 17:11:00,26.0,22.0,30.17,North,356,10.0,18.0,85,0.00,,,0.00,,2013-02-27 23:11:00,
2013-02-27 17:21:00,26.0,22.0,30.18,NNW,334,9.0,15.0,86,0.00,,,0.00,,2013-02-27 23:21:00,
2013-02-27 17:32:00,25.0,21.0,30.18,North,356,7.0,15.0,86,0.00,,,0.00,,2013-02-27 23:32:00,
2013-02-27 17:42:00,25.0,21.0,30.18,North,356,7.0,15.0,86,0.00,,,0.00,,2013-02-27 23:42:00,
2013-02-27 17:52:00,25.0,22.0,30.18,NNW,345,8.0,17.0,87,0.00,,,0.00,,2013-02-27 23:52:00,
2013-02-27 18:02:00,25.0,22.0,30.19,NNW,330,8.0,14.0,87,0.00,,,0.00,,2013-02-28 00:02:00,
2013-02-27 18:11:00,25.0,22.0,30.19,NNW,330,8.0,14.0,87,0.00,,,0.00,,2013-02-28 00:11:00,
2013-02-27 18:21:00,24.0,21.0,30.19,NNE,15,6.0,14.0,87,0.00,,,0.00,,2013-02-28 00:21:00,
2013-02-27 18:32:00,24.0,21.0,30.19,NNE,13,7.0,14.0,88,0.00,,,0.00,,2013-02-28 00:32:00,
2013-02-27 18:42:00,24.0,21.0,30.19,NNE,13,7.0,14.0,88,0.00,,,0.00,,2013-02-28 00:42:00,
2013-02-27 18:52:00,23.0,20.0,30.20,NNW,348,6.0,14.0,88,0.00,,,0.00,,2013-02-28 00:52:00,
2013-02-27 19:01:00,23.0,20.0,30.20,NW,305,7.0,14.0,88,0.00,,,0.00,,2013-02-28 01:01:00,
2013-02-27 19:11:00,23.0,20.0,30.20,NW,305,7.0,14.0,88,0.00,,,0.00,,2013-02-28 01:11:00,
2013-02-27 19:21:00,23.0,20.0,30.20,NNW,347,5.0,12.0,88,0.00,,,0.00,,2013-02-28 01:21:00,
2013-02-27 19:32:00,22.0,19.0,30.20,NNW,344,5.0,12.0,89,0.00,,,0.00,,2013-02-28 01:32:00,
2013-02-27 19:41:00,22.0,19.0,30.20,NNW,344,5.0,12.0,89,0.00,,,0.00,,2013-02-28 01:41:00,
2013-02-27 19:52:00,22.0,19.0,30.21,NNE,22,6.0,13.0,89,0.00,,,0.00,,2013-02-28 01:52:00,
2013-02-27 20:01:00,22.0,19.0,30.21,NNW,346,6.0,13.0,89,0.00,,,0.00,,2013-02-28 02:01:00,
2013-02-27 20:11:00,22.0,19.0,30.21,NNW,346,6.0,13.0,89,0.00,,,0.00,,2013-02-28 02:11:00,
2013-02-27 20:22:00,22.0,19.0,30.21,NNW,339,6.0,14.0,89,0.00,,,0.00,,2013-02-28 02:22:00,
2013-02-27 20:32:00,22.0,19.0,30.21,NNW,342,8.0,13.0,89,0.00,,,0.00,,2013-02-28 02:32:00,
2013-02-27 20:41:00,22.0,19.0,30.21,NNW,342,8.0,13.0,89,0.00,,,0.00,,2013-02-28 02:41:00,
2013-02-27 20:51:00,22.0,19.0,30.21,NNW,342,8.0,13.0,89,0.00,,,0.00,,2013-02-28 02:51:00,
2013-02-27 21:01:00,22.0,19.0,30.22,NNE,21,5.0,12.0,89,0.00,,,0.00,,2013-02-28 03:01:00,
2013-02-27 21:11:00,22.0,19.0,30.22,NNE,21,5.0,12.0,89,0.00,,,0.00,,2013-02-28 03:11:00,
2013-02-27 21:21:00,21.0,18.0,30.22,NW,326,6.0,11.0,89,0.00,,,0.00,,2013-02-28 03:21:00,
2013-02-27 21:32:00,21.0,18.0,30.23,NNW,345,4.0,11.0,89,0.00,,,0.00,,2013-02-28 03:32:00,
2013-02-27 21:42:00,21.0,18.0,30.23,NNW,345,4.0,11.0,89,0.00,,,0.00,,2013-02-28 03:42:00,
2013-02-27 21:52:00,21.0,18.0,30.23,NNE,32,5.0,8.0,89,0.00,,,0.00,,2013-02-28 03:52:00,
2013-02-27 22:01:00,21.0,18.0,30.23,North,6,5.0,8.0,89,0.00,,,0.00,,2013-02-28 04:01:00,
2013-02-27 22:11:00,21.0,18.0,30.23,North,6,5.0,8.0,89,0.00,,,0.00,,2013-02-28 04:11:00,
2013-02-27 22:21:00,21.0,18.0,30.23,NNE,25,5.0,10.0,89,0.00,,,0.00,,2013-02-28 04:21:00,
2013-02-27 22:32:00,21.0,18.0,30.23,NNE,25,5.0,10.0,89,0.00,,,0.00,,2013-02-28 04:32:00,
2013-02-27 22:42:00,21.0,18.0,30.23,NNE,25,5.0,10.0,89,0.00,,,0.00,,2013-02-28 04:42:00,
2013-02-27 22:52:00,20.0,17.0,30.23,NNW,345,5.0,9.0,89,0.00,,,0.00,,2013-02-28 04:52:00,
2013-02-27 23:01:00,20.0,17.0,30.23,NNE,19,3.0,7.0,89,0.00,,,0.00,,2013-02-28 05:01:00,
2013-02-27 23:11:00,20.0,17.0,30.23,NNE,19,3.0,7.0,89,0.00,,,0.00,,2013-02-28 05:11:00,
2013-02-27 23:22:00,20.0,17.0,30.23,NNE,19,3.0,7.0,89,0.00,,,0.00,,2013-02-28 05:22:00,
2013-02-27 23:32:00,19.0,17.0,30.23,NNW,335,3.0,5.0,90,0.00,,,0.00,,2013-02-28 05:32:00,
2013-02-27 23:42:00,19.0,17.0,30.23,NNW,335,3.0,5.0,90,0.00,,,0.00,,2013-02-28 05:42:00,
2013-02-27 23:52:00,19.0,17.0,30.23,NNW,335,3.0,5.0,90,0.00,,,0.00,,2013-02-28 05:52:00,